STARLINK-34066 (63909 NORAD) Tracking and Keplerian Element Data

This shows tracking and keplerian element data for the satellite.

Feedback or suggestion? Click here.




ElementValue
Catalog63909
NameSTARLINK-34066
Epoch Orbit3560
Epoch Day354.09698154
Epoch Year2025
RAAN265.8471
Inclination43.002
Eccentricity0.0001392
Argument of Perigee271.3943
Mean Anonmoly88.6749
Mean Motion15.27586783
Decay Rate0.0001065
L11 63909U 25095V 25354.09698154 .00010650 00000+0 39588-3 0 9996
L22 63909 43.0020 265.8471 0001392 271.3943 88.6749 15.27586783 35603



Live tracking and technical data element details for STARLINK-34066 (NORAD 63909). STARLINK-34066 can be tracked NOW for your location showing map with azimuth and elevation plus other details from your city location.







IsCatalogInMostPopularTable: catalog: 63909, numindb: 2
Update: records affected: 1



GetName: 63909 STARLINK-34066

Hit Count: updated at: Wed, 11 Feb 2026 15:32:31 GMT